| time (UTC) | temp F | wind direction | speed MPH | gust MPH | rain 1hr in | rain 24hr in | rain mn in | humidity % | barometer mb |
| 20260504081504 | 38 | 101 | 0.0 | 0.0 | 0.00 | 0.14 | 0.00 | 91 | 1000.9 |
| 20260504044531 | 46 | 241 | 7.0 | 9.0 | 0.00 | 0.14 | 0.00 | 89 | 1002.7 |
| 20260504043028 | 47 | 242 | 7.0 | 9.0 | 0.00 | 0.14 | 0.00 | 89 | 1002.9 |
| 20260504041524 | 48 | 233 | 6.0 | 8.0 | 0.00 | 0.14 | 0.00 | 90 | 1002.8 |
| 20260504040020 | 49 | 232 | 6.0 | 9.0 | 0.00 | 0.14 | 0.00 | 90 | 1003.0 |
| 20260504034535 | 49 | 233 | 3.0 | 4.0 | 0.00 | 0.14 | 0.14 | 91 | 1003.0 |
| 20260504033025 | 49 | 240 | 2.0 | 3.0 | 0.00 | 0.14 | 0.14 | 91 | 1003.2 |
| 20260504031519 | 49 | 214 | 0.0 | 2.0 | 0.00 | 0.14 | 0.14 | 90 | 1003.4 |
| 20260504030020 | 49 | 243 | 0.0 | 0.0 | 0.00 | 0.14 | 0.14 | 90 | 1003.5 |
| 20260504024518 | 49 | 240 | 0.0 | 1.0 | 0.00 | 0.14 | 0.14 | 91 | 1003.4 |
| 20260504023018 | 49 | 224 | 0.0 | 1.0 | 0.00 | 0.14 | 0.14 | 91 | 1003.3 |
| 20260504021517 | 49 | 229 | 0.0 | 4.0 | 0.01 | 0.14 | 0.14 | 91 | 1003.2 |
| 20260504020019 | 48 | 226 | 0.0 | 3.0 | 0.01 | 0.14 | 0.14 | 89 | 1003.1 |
| 20260504014519 | 47 | 242 | 0.0 | 0.0 | 0.01 | 0.14 | 0.14 | 91 | 1003.1 |
| 20260504013016 | 46 | 235 | 0.0 | 0.0 | 0.01 | 0.14 | 0.14 | 91 | 1003.3 |
| 20260504011515 | 46 | 235 | 0.0 | 0.0 | 0.00 | 0.13 | 0.13 | 92 | 1003.0 |
| 20260504010013 | 46 | 235 | 0.0 | 0.0 | 0.00 | 0.13 | 0.13 | 91 | 1002.9 |
| 20260504004513 | 47 | 235 | 0.0 | 0.0 | 0.02 | 0.13 | 0.13 | 91 | 1002.9 |
| 20260504003013 | 48 | 235 | 0.0 | 0.0 | 0.04 | 0.13 | 0.13 | 91 | 1003.0 |
| 20260504001513 | 49 | 228 | 0.0 | 4.0 | 0.10 | 0.13 | 0.13 | 90 | 1003.0 |
| 20260504000012 | 49 | 239 | 1.0 | 7.0 | 0.13 | 0.13 | 0.13 | 91 | 1002.9 |
| 20260503234512 | 50 | 232 | 11.0 | 14.0 | 0.10 | 0.10 | 0.10 | 88 | 1003.3 |
| 20260503233010 | 51 | 243 | 3.0 | 7.0 | 0.08 | 0.08 | 0.08 | 86 | 1003.6 |
| 20260503231516 | 53 | 315 | 0.0 | 5.0 | 0.03 | 0.03 | 0.03 | 81 | 1003.8 |
| 20260503230009 | 56 | 245 | 7.0 | 14.0 | 0.00 | 0.00 | 0.00 | 70 | 1002.9 |
| 20260503224508 | 57 | 252 | 13.0 | 20.0 | 0.00 | 0.00 | 0.00 | 67 | 1002.6 |
| 20260503223015 | 57 | 217 | 7.0 | 15.0 | 0.00 | 0.00 | 0.00 | 69 | 1002.2 |
| 20260503221506 | 57 | 221 | 13.0 | 19.0 | 0.00 | 0.00 | 0.00 | 65 | 1002.3 |
| 20260503220004 | 57 | 244 | 11.0 | 16.0 | 0.00 | 0.00 | 0.00 | 67 | 1002.3 |
| 20260503214600 | 57 | 228 | 15.0 | 21.0 | 0.00 | 0.00 | 0.00 | 66 | 1002.4 |
| 20260503213128 | 57 | 207 | 9.0 | 18.0 | 0.00 | 0.00 | 0.00 | 67 | 1002.4 |
| 20260503211618 | 57 | 233 | 11.0 | 17.0 | 0.00 | 0.00 | 0.00 | 66 | 1002.8 |
| 20260503210051 | 56 | 223 | 11.0 | 17.0 | 0.00 | 0.00 | 0.00 | 68 | 1003.0 |
| 20260503204602 | 56 | 237 | 13.0 | 18.0 | 0.00 | 0.00 | 0.00 | 70 | 1003.3 |
| 20260503203046 | 56 | 221 | 14.0 | 19.0 | 0.00 | 0.00 | 0.00 | 65 | 1003.5 |
| 20260503201545 | 56 | 246 | 16.0 | 21.0 | 0.00 | 0.00 | 0.00 | 66 | 1004.0 |
| 20260503200043 | 56 | 228 | 14.0 | 20.0 | 0.00 | 0.00 | 0.00 | 65 | 1004.1 |
| 20260503194542 | 56 | 222 | 14.0 | 20.0 | 0.00 | 0.00 | 0.00 | 66 | 1004.3 |
| 20260503193041 | 56 | 241 | 15.0 | 20.0 | 0.00 | 0.00 | 0.00 | 65 | 1004.4 |
| 20260503191553 | 56 | 240 | 14.0 | 18.0 | 0.00 | 0.00 | 0.00 | 66 | 1004.6 |
| 20260503190036 | 55 | 231 | 13.0 | 19.0 | 0.00 | 0.00 | 0.00 | 66 | 1004.9 |
| 20260503184530 | 55 | 236 | 12.0 | 17.0 | 0.00 | 0.00 | 0.00 | 67 | 1005.1 |
| 20260503183032 | 53 | 238 | 8.0 | 16.0 | 0.00 | 0.00 | 0.00 | 72 | 1005.2 |
| 20260503181523 | 52 | 224 | 11.0 | 16.0 | 0.00 | 0.00 | 0.00 | 73 | 1005.6 |
| 20260503180029 | 52 | 243 | 10.0 | 13.0 | 0.00 | 0.00 | 0.00 | 76 | 1005.6 |
| 20260503174522 | 51 | 236 | 7.0 | 13.0 | 0.00 | 0.00 | 0.00 | 79 | 1005.7 |
| 20260503173016 | 50 | 249 | 8.0 | 13.0 | 0.00 | 0.00 | 0.00 | 80 | 1005.9 |
| 20260503171517 | 50 | 243 | 10.0 | 13.0 | 0.00 | 0.00 | 0.00 | 82 | 1006.1 |